�N����,����,�~����,�C��,���x,�C��,����,���ϕ���,�ő�u�ԕ���,�ő厞����,���˗�,�I�_���x,�n�����x,�ő啗���N��,DTYPE
"19/05/22","00:10",0.0,13.7,73.4,1000.5,326.1,1.7,3.3,318.6,0.00,9.1,17.9,"00:06:08",1
"19/05/22","00:20",0.0,13.6,72.8,1000.8,325.4,1.8,2.8,337.7,0.00,8.9,18.0,"00:16:16",1
"19/05/22","00:30",0.0,13.3,73.5,1000.8,323.2,1.8,2.9,336.3,0.00,8.7,17.8,"00:23:04",1
"19/05/22","00:40",0.0,13.3,73.5,1000.8,318.7,1.8,2.8,325.9,0.00,8.7,17.7,"00:36:56",1
"19/05/22","00:50",0.0,13.1,73.8,1000.8,282.9,1.3,2.4,328.0,0.00,8.6,17.7,"00:40:56",1
"19/05/22","01:00",0.0,12.8,74.2,1001.0,286.8,1.3,2.0,313.9,0.00,8.4,17.7,"00:59:44",1
"19/05/22","01:10",0.0,12.5,75.6,1000.8,302.8,1.5,2.1,310.6,0.00,8.4,17.5,"01:00:16",1
"19/05/22","01:20",0.0,12.6,76.3,1000.8,307.4,2.0,3.4,323.7,0.00,8.6,17.6,"01:11:52",1
"19/05/22","01:30",0.0,12.3,76.4,1000.8,298.5,1.1,2.1,319.2,0.00,8.3,17.5,"01:24:24",1
"19/05/22","01:40",0.0,11.5,78.4,1000.8,300.3,0.6,1.4,313.1,0.00,7.9,17.3,"01:31:12",1
"19/05/22","01:50",0.0,11.2,80.5,1000.5,301.1,1.1,1.7,305.2,0.00,8.0,17.2,"01:46:08",1
"19/05/22","02:00",0.0,11.1,81.4,1000.8,309.0,1.3,2.2,329.0,0.00,8.1,17.2,"01:57:04",1
"19/05/22","02:10",0.0,11.0,82.0,1000.8,306.2,0.7,1.4,308.6,0.00,8.1,17.2,"02:00:16",1
"19/05/22","02:20",0.0,11.0,82.2,1000.5,286.0,1.5,2.2,261.9,0.00,8.1,17.0,"02:14:56",1
"19/05/22","02:30",0.0,10.8,83.0,1000.8,297.4,1.2,1.8,304.2,0.00,8.1,16.9,"02:25:36",1
"19/05/22","02:40",0.0,10.5,84.6,1000.5,295.7,1.1,1.6,273.7,0.00,8.1,16.7,"02:34:08",1
"19/05/22","02:50",0.0,10.2,85.1,1000.3,299.9,1.1,1.6,314.1,0.00,7.9,16.8,"02:46:00",1
"19/05/22","03:00",0.0,10.4,85.6,1000.5,302.7,1.3,2.7,315.8,0.00,8.1,16.8,"02:50:02",1
"19/05/22","03:10",0.0,10.7,85.5,1000.5,295.6,2.0,3.2,318.0,0.00,8.4,16.5,"03:00:02",1
"19/05/22","03:20",0.0,11.6,84.4,1000.3,317.0,3.0,4.3,318.3,0.00,9.1,16.6,"03:17:04",1
"19/05/22","03:30",0.0,11.9,82.8,1000.8,323.2,3.2,4.9,335.2,0.00,9.1,16.7,"03:24:08",1
"19/05/22","03:40",0.0,11.8,81.3,1000.5,312.6,2.6,4.2,335.1,0.00,8.7,16.6,"03:38:56",1
"19/05/22","03:50",0.0,11.9,80.8,1000.5,327.4,3.2,4.9,332.4,0.00,8.8,16.5,"03:43:52",1
"19/05/22","04:00",0.0,11.8,79.6,1000.3,299.5,2.2,4.4,330.4,0.00,8.4,16.3,"03:50:40",1
"19/05/22","04:10",0.0,11.2,80.8,1000.5,291.5,1.6,2.8,299.5,0.00,8.1,16.3,"04:00:32",1
"19/05/22","04:20",0.0,10.8,81.3,1000.8,316.8,0.3,1.2,345.0,0.00,7.8,16.3,"04:12:24",1
"19/05/22","04:30",0.0,10.4,83.3,1000.8,293.5,1.0,2.1,325.9,0.00,7.7,16.2,"04:27:28",1
"19/05/22","04:40",0.0,10.1,84.5,1000.8,298.4,1.2,1.9,330.1,0.00,7.6,16.2,"04:36:56",1
"19/05/22","04:50",0.0,10.0,85.5,1001.0,324.6,1.7,2.4,325.0,0.00,7.7,16.2,"04:46:16",1
"19/05/22","05:00",0.0,10.0,86.9,1000.8,325.5,1.5,2.6,328.6,0.00,8.0,16.2,"04:57:36",1
"19/05/22","05:10",0.0,10.0,87.4,1001.0,315.8,1.6,2.6,324.7,0.00,8.0,16.1,"05:07:28",1
"19/05/22","05:20",0.0,10.0,87.1,1001.0,317.4,1.5,2.6,323.5,0.00,8.0,16.1,"05:13:52",1
"19/05/22","05:30",0.0,10.2,88.2,1001.2,300.9,1.7,2.7,307.0,0.00,8.4,16.0,"05:27:12",1
"19/05/22","05:40",0.0,10.3,88.9,1001.0,305.6,1.3,2.7,302.0,0.00,8.6,15.9,"05:39:28",1
"19/05/22","05:50",0.0,10.8,88.8,1001.0,313.2,2.2,4.4,327.2,0.00,9.1,15.9,"05:41:04",1
"19/05/22","06:00",0.0,11.1,88.5,1001.2,324.4,3.0,5.2,342.6,0.01,9.3,16.0,"05:57:36",1
"19/05/22","06:10",0.0,11.0,87.8,1001.5,323.7,1.8,3.1,319.4,0.02,9.1,15.8,"06:00:16",1
"19/05/22","06:20",0.0,11.1,87.2,1001.5,325.9,2.2,3.7,336.8,0.03,9.1,15.9,"06:11:04",1
"19/05/22","06:30",0.0,11.8,86.5,1001.7,327.9,2.0,3.5,313.0,0.03,9.7,15.9,"06:27:36",1
"19/05/22","06:40",0.0,12.0,85.0,1001.7,327.3,1.7,2.8,328.2,0.03,9.6,16.0,"06:38:24",1
"19/05/22","06:50",0.0,12.6,85.0,1002.2,336.0,1.2,2.5,340.5,0.06,10.2,16.0,"06:46:32",1
"19/05/22","07:00",0.0,13.5,83.0,1002.4,325.0,1.0,1.7,316.6,0.07,10.7,16.0,"06:52:48",1
"19/05/22","07:10",0.0,14.0,80.8,1002.6,287.8,1.2,1.9,307.3,0.10,10.8,16.0,"07:08:08",1
"19/05/22","07:20",0.0,14.0,79.6,1002.9,298.5,1.2,2.8,336.2,0.09,10.6,16.0,"07:13:44",1
"19/05/22","07:30",0.0,14.4,77.1,1002.4,239.8,0.6,1.2,248.3,0.13,10.5,16.3,"07:23:36",1
"19/05/22","07:40",0.0,14.5,77.5,1002.6,258.5,0.6,1.4,265.5,0.14,10.7,16.3,"07:36:24",1
"19/05/22","07:50",0.0,15.4,73.3,1002.4,317.5,0.6,1.6,210.7,0.22,10.7,16.5,"07:43:20",1
"19/05/22","08:00",0.0,14.9,74.6,1002.9,254.3,0.8,1.7,243.7,0.19,10.5,16.6,"07:55:20",1
"19/05/22","08:10",0.0,15.6,72.9,1002.9,285.4,0.6,1.2,290.9,0.21,10.8,16.7,"08:04:40",1
"19/05/22","08:20",0.0,16.3,70.2,1002.6,203.8,0.3,1.3,198.5,0.34,10.9,16.7,"08:18:16",1
"19/05/22","08:30",0.0,16.9,67.8,1002.2,88.9,0.7,2.0,164.3,0.35,11.0,17.0,"08:26:08",1
"19/05/22","08:40",0.0,17.7,66.6,1001.9,114.8,0.7,1.9,223.5,0.39,11.5,17.1,"08:32:24",1
"19/05/22","08:50",0.0,18.0,63.4,1001.9,25.1,1.1,2.4,22.1,0.45,11.0,17.3,"08:43:12",1
"19/05/22","09:00",0.0,18.4,59.5,1001.7,81.7,0.7,2.5,178.4,0.42,10.4,17.5,"08:52:56",1
"19/05/22","09:10",0.0,19.0,60.0,1001.9,24.9,1.0,2.8,40.3,0.36,11.1,17.8,"09:06:08",1
"19/05/22","09:20",0.0,19.7,57.5,1001.5,74.0,0.6,1.3,162.7,0.36,11.1,17.8,"09:18:32",1
"19/05/22","09:30",0.0,19.7,54.8,1001.2,169.1,1.0,2.6,186.4,0.45,10.4,18.2,"09:24:48",1
"19/05/22","09:40",0.0,20.5,54.8,1001.2,248.1,0.6,2.4,203.5,0.48,11.1,18.3,"09:39:12",1
"19/05/22","09:50",0.0,20.9,54.2,1001.0,164.6,1.6,3.1,140.2,0.49,11.3,18.6,"09:48:24",1
"19/05/22","10:00",0.0,21.1,52.2,1000.8,114.9,1.1,2.7,187.5,0.50,11.0,18.6,"09:59:44",1
"19/05/22","10:10",0.0,21.1,49.0,1000.8,140.6,1.6,3.1,114.7,0.53,10.0,19.0,"10:08:00",1
"19/05/22","10:20",0.0,21.7,48.6,1000.3,144.1,1.1,2.9,152.9,0.53,10.4,19.4,"10:12:48",1
"19/05/22","10:30",0.0,21.8,48.1,1000.0,161.0,1.6,3.2,207.1,0.53,10.4,19.7,"10:22:08",1
"19/05/22","10:40",0.0,22.3,46.1,999.8,160.4,1.5,3.4,193.0,0.50,10.2,19.8,"10:37:04",1
"19/05/22","10:50",0.0,22.9,41.7,1000.3,169.9,1.5,3.7,160.9,0.53,9.3,19.9,"10:44:32",1
"19/05/22","11:00",0.0,22.9,44.0,1000.0,163.2,2.2,3.9,223.1,0.55,10.1,20.3,"10:52:00",1
"19/05/22","11:10",0.0,23.3,36.3,1000.0,131.4,1.5,3.4,157.8,0.46,7.6,20.5,"11:09:12",1
"19/05/22","11:20",0.0,23.8,33.4,999.8,174.4,2.0,4.7,220.5,0.54,6.8,20.7,"11:17:28",1
"19/05/22","11:30",0.0,24.1,32.1,998.9,144.1,1.5,4.1,165.6,0.52,6.5,20.7,"11:21:28",1
"19/05/22","11:40",0.0,24.3,29.4,999.6,171.9,1.8,3.4,213.5,0.55,5.4,21.1,"11:30:08",1
"19/05/22","11:50",0.0,24.4,31.9,999.3,154.8,2.0,4.1,216.0,0.60,6.6,21.3,"11:42:00",1
"19/05/22","12:00",0.0,25.1,31.5,999.3,138.8,1.1,3.1,106.9,0.62,7.1,21.6,"11:59:20",1
"19/05/22","12:10",0.0,25.3,30.0,999.3,194.8,1.6,3.6,123.5,0.64,6.5,22.1,"12:02:08",1
"19/05/22","12:20",0.0,25.6,29.9,999.3,314.9,1.7,5.2,332.6,0.62,6.7,22.1,"12:12:32",1
"19/05/22","12:30",0.0,25.5,33.6,998.9,304.1,1.7,3.3,274.2,0.59,8.4,22.3,"12:20:24",1
"19/05/22","12:40",0.0,25.3,27.4,998.9,290.8,2.3,6.4,324.8,0.59,5.2,22.7,"12:34:16",1
"19/05/22","12:50",0.0,26.1,33.3,998.6,310.9,1.8,5.2,343.8,0.62,8.8,22.8,"12:43:28",1
"19/05/22","13:00",0.0,25.6,28.3,998.6,273.4,1.5,3.4,313.4,0.62,5.9,23.0,"12:57:12",1
"19/05/22","13:10",0.0,25.8,29.5,998.4,271.2,2.2,4.9,253.4,0.57,6.7,23.0,"13:08:32",1
"19/05/22","13:20",0.0,25.6,28.7,998.2,236.6,2.5,7.0,229.1,0.62,6.2,23.0,"13:15:44",1
"19/05/22","13:30",0.0,25.7,30.8,998.2,223.6,2.6,6.6,223.5,0.58,7.3,23.0,"13:25:28",1
"19/05/22","13:40",0.0,26.3,29.7,998.2,236.3,2.1,5.1,221.1,0.61,7.3,22.8,"13:39:52",1
"19/05/22","13:50",0.0,26.3,28.2,998.4,248.8,1.3,3.3,230.9,0.57,6.5,22.8,"13:42:08",1
"19/05/22","14:00",0.0,26.4,29.7,998.2,274.4,1.6,4.2,303.7,0.57,7.3,23.1,"13:52:40",1
"19/05/22","14:10",0.0,26.7,28.2,998.4,211.8,2.0,3.6,228.7,0.57,6.8,22.9,"14:09:44",1
"19/05/22","14:20",0.0,26.5,27.5,998.2,239.1,2.3,6.7,215.8,0.54,6.3,23.0,"14:19:52",1
"19/05/22","14:30",0.0,26.8,30.7,997.9,237.7,2.1,4.4,218.3,0.54,8.2,23.4,"14:23:12",1
"19/05/22","14:40",0.0,26.4,26.2,998.2,240.3,1.7,4.0,245.1,0.52,5.5,23.2,"14:36:24",1
"19/05/22","14:50",0.0,26.7,26.2,998.2,122.0,1.1,2.8,228.9,0.51,5.8,23.4,"14:41:52",1
"19/05/22","15:00",0.0,26.8,24.1,998.4,156.9,0.8,1.8,26.9,0.50,4.7,23.4,"14:51:36",1
"19/05/22","15:10",0.0,27.0,25.7,998.4,14.3,1.2,3.9,343.0,0.48,5.8,23.5,"15:09:20",1
"19/05/22","15:20",0.0,26.7,23.0,998.2,304.8,1.1,2.4,348.0,0.46,3.9,23.6,"15:10:16",1
"19/05/22","15:30",0.0,26.9,28.4,998.2,200.1,1.3,3.2,207.3,0.44,7.1,23.8,"15:22:16",1
"19/05/22","15:40",0.0,27.0,29.6,998.2,352.2,1.6,3.9,320.5,0.42,7.8,23.8,"15:37:12",1
"19/05/22","15:50",0.0,26.7,28.1,997.9,352.1,2.0,6.4,347.1,0.40,6.8,23.8,"15:49:28",1
"19/05/22","16:00",0.0,27.4,24.9,997.4,340.3,1.8,4.4,337.0,0.37,5.6,23.7,"15:53:28",1
"19/05/22","16:10",0.0,27.4,28.8,997.7,337.7,2.0,4.4,355.3,0.35,7.7,23.6,"16:01:52",1
"19/05/22","16:20",0.0,28.0,27.2,997.4,344.4,1.5,3.5,343.7,0.33,7.4,23.7,"16:11:36",1
"19/05/22","16:30",0.0,28.2,24.2,997.7,324.6,1.0,2.5,302.5,0.31,5.9,23.6,"16:29:44",1
"19/05/22","16:40",0.0,27.9,26.2,997.9,20.7,0.7,2.1,25.8,0.28,6.8,23.5,"16:38:08",1
"19/05/22","16:50",0.0,27.1,27.8,997.9,99.0,1.2,3.4,109.0,0.25,7.0,23.8,"16:45:36",1
"19/05/22","17:00",0.0,26.7,30.5,997.7,92.2,1.5,3.4,141.9,0.23,8.0,23.5,"16:58:48",1
"19/05/22","17:10",0.0,26.3,32.4,997.7,93.5,1.2,3.3,125.0,0.20,8.5,23.5,"17:02:48",1
"19/05/22","17:20",0.0,26.1,30.7,997.7,109.4,1.1,2.4,97.8,0.18,7.6,23.4,"17:14:32",1
"19/05/22","17:30",0.0,25.8,33.6,997.7,0.4,1.5,3.9,46.0,0.10,8.6,23.4,"17:23:36",1
"19/05/22","17:40",0.0,25.1,34.3,998.2,1.5,2.1,4.4,340.3,0.02,8.3,23.4,"17:34:32",1
"19/05/22","17:50",0.0,24.5,34.3,998.6,351.5,2.3,5.4,344.0,0.01,7.8,23.3,"17:44:00",1
"19/05/22","18:00",0.0,24.1,35.4,998.6,344.2,2.5,5.2,347.0,0.01,7.9,23.1,"17:51:12",1
"19/05/22","18:10",0.0,24.0,35.4,998.9,359.7,2.5,4.5,29.0,0.01,7.8,23.0,"18:08:16",1
"19/05/22","18:20",0.0,23.7,34.2,999.1,358.0,2.0,3.3,339.3,0.01,7.0,22.8,"18:10:16",1
"19/05/22","18:30",0.0,23.3,35.4,999.8,351.7,2.3,5.2,353.0,0.00,7.2,22.7,"18:27:12",1
"19/05/22","18:40",0.0,22.6,36.4,999.3,352.4,2.6,6.0,348.9,0.00,7.0,22.5,"18:39:44",1
"19/05/22","18:50",0.0,21.9,38.6,999.6,347.0,2.3,4.8,340.2,0.00,7.2,22.5,"18:44:16",1
"19/05/22","19:00",0.0,21.6,38.3,1000.0,344.2,3.0,5.4,349.0,0.00,6.8,22.2,"18:52:16",1
"19/05/22","19:10",0.0,21.2,39.1,1000.5,342.8,2.6,5.2,351.5,0.00,6.8,22.2,"19:07:08",1
"19/05/22","19:20",0.0,20.7,41.0,1000.8,332.7,2.6,4.9,336.7,0.00,7.0,22.0,"19:12:08",1
"19/05/22","19:30",0.0,20.3,41.6,1000.5,334.1,2.6,4.7,343.0,0.00,6.9,21.7,"19:28:48",1
"19/05/22","19:40",0.0,20.1,41.3,1001.0,329.1,2.6,5.1,336.6,0.00,6.6,21.6,"19:34:48",1
"19/05/22","19:50",0.0,20.0,41.0,1001.0,326.8,2.7,3.7,316.9,0.00,6.4,21.3,"19:40:40",1
"19/05/22","20:00",0.0,19.8,40.7,1001.2,326.1,2.8,4.4,308.6,0.00,6.1,21.2,"19:54:48",1
"19/05/22","20:10",0.0,19.9,39.9,1001.2,322.4,3.1,4.9,333.4,0.00,5.9,21.1,"20:02:48",1
"19/05/22","20:20",0.0,19.9,39.2,1001.5,324.4,3.4,5.6,326.0,0.00,5.7,21.0,"20:18:00",1
"19/05/22","20:30",0.0,19.8,39.5,1001.5,329.9,3.1,4.8,330.6,0.00,5.7,20.7,"20:24:32",1
"19/05/22","20:40",0.0,19.7,38.9,1001.9,325.9,3.1,6.3,333.0,0.00,5.4,20.8,"20:35:44",1
"19/05/22","20:50",0.0,19.3,40.0,1001.7,331.4,2.8,4.8,340.8,0.00,5.4,20.6,"20:40:24",1
"19/05/22","21:00",0.0,19.1,40.6,1002.2,334.4,2.7,6.0,321.5,0.00,5.5,20.3,"20:52:40",1
"19/05/22","21:10",0.0,18.6,42.7,1001.9,318.9,2.1,3.9,340.8,0.00,5.7,20.5,"21:01:28",1
"19/05/22","21:20",0.0,17.7,45.8,1002.2,291.8,1.0,1.6,324.9,0.00,5.9,20.3,"21:16:40",1
"19/05/22","21:30",0.0,16.8,49.2,1002.4,266.3,1.0,2.1,259.4,0.00,6.1,20.1,"21:22:32",1
"19/05/22","21:40",0.0,16.4,50.7,1002.6,267.9,0.8,1.7,273.2,0.00,6.2,20.0,"21:38:40",1
"19/05/22","21:50",0.0,16.1,51.3,1002.6,282.9,1.1,1.7,304.8,0.00,6.1,19.7,"21:42:56",1
"19/05/22","22:00",0.0,15.7,53.2,1002.6,285.0,0.8,1.6,266.7,0.00,6.3,19.7,"21:50:02",1
"19/05/22","22:10",0.0,15.6,53.4,1002.6,279.1,1.1,2.0,262.2,0.00,6.2,19.6,"22:04:24",1
"19/05/22","22:20",0.0,15.4,53.6,1002.6,289.0,0.6,1.2,329.8,0.00,6.1,19.5,"22:16:00",1
"19/05/22","22:30",0.0,15.0,56.3,1002.9,277.2,0.8,2.0,259.1,0.00,6.4,19.3,"22:27:20",1
"19/05/22","22:40",0.0,15.0,56.9,1002.6,303.7,0.8,2.4,338.8,0.00,6.6,19.4,"22:37:12",1
"19/05/22","22:50",0.0,14.7,57.7,1002.6,290.3,0.7,1.3,239.6,0.00,6.5,19.0,"22:49:04",1
"19/05/22","23:00",0.0,14.6,58.0,1003.1,275.9,1.0,1.6,266.3,0.00,6.5,18.9,"22:54:40",1
"19/05/22","23:10",0.0,14.7,58.3,1003.1,287.0,0.8,1.2,276.9,0.00,6.6,18.9,"23:00:40",1
"19/05/22","23:20",0.0,14.5,58.5,1003.1,281.4,0.7,1.2,278.0,0.00,6.5,18.7,"23:19:04",1
"19/05/22","23:30",0.0,14.0,61.3,1003.1,304.2,1.1,2.1,319.9,0.00,6.7,18.7,"23:24:54",1
"19/05/22","23:40",0.0,14.0,64.2,1003.4,309.3,1.2,1.8,330.1,0.00,7.4,18.7,"23:32:26",1
"19/05/22","23:50",0.0,13.4,66.4,1003.1,301.4,1.3,1.9,316.1,0.00,7.3,18.6,"23:49:26",1
"19/05/22","24:00",0.0,13.4,67.9,1003.6,310.9,1.5,2.0,320.6,0.00,7.6,18.5,"23:58:12",1
